User: anonymous   Login
Location: Dappach
(48.9767°N, 9.6998°E)
Time: 23:40:48
(UTC+00:00)
Language:

DELTA 2 R/B (1) - Orbit

View from above orbital plane
View from above orbital plane
View from above satellite
View from above satellite

Ground track
Ground track

The orbit data is extracted from the following two-line orbital elements,

1 27665U 03005C   24204.48507660  .00000373  00000-0  17905-3 0  9990
2 27665  39.5738 227.4912 0008823 206.1301 304.9861 14.29047257121606
Epoch (UTC): 22 July 2024 11:38:30
Eccentricity: 0.0008823
inclination: 39.5738°
perigee height: 788 km
apogee height: 801 km
right ascension of ascending node: 227.4912°
argument of perigee: 206.1301°
revolutions per day: 14.29047257
mean anomaly at epoch: 304.9861°
orbit number at epoch: 12160

The dashed part of the orbit path shows where the satellite is in the earth's shadow,  

DLR